HULIANWANG DIGUI-129

导读 | 豆包AI

HULIANWANG DIGUI-129是中国于2025年12月25日发射的低轨卫星,归属互联网低轨卫星星座组网建设序列。该卫星旨在完善天地一体化网络布局,提升全球网络覆盖能力,为偏远地区、海上及空中场景提供高速稳定的互联网接入服务,是中国商业航天与卫星互联网领域部署的重要节点,推动星座规模化组网进程。

基本信息
目录编号:
67237
目录名称:
HULIANWANG DIGUI-129
国际标识:
2025-311B
轨道中心:
EARTH
卫星名称:
HULIANWANG DIGUI-129
卫星全名:
HULIANWANG DIGUI-129
卫星状态:
在轨 (已飞行100 天)
发射日期:
2025-12-25 UTC
国别 :
中国 (CN)
星等 :
--
轨道信息
数据来源 国际轨道数据 AOE轨道数据
星历时间 2026-04-03T13:47:25+0800
21小时前
查看轨道信息
2026-04-02T22:00:00+0800
1天前
查看轨道信息
半长轴 7527.419km 7527.42km
偏心率 0.0000397 0.0000355
轨道倾角 50.010° 50.009°
近地点辐角 63.326° 77.933°
升交点赤经 24.382° 26.741°
平近点角 296.765° 11.620°
近地点 1148.983km 1149.015km
远地点 1149.581km 1149.551km
周期 108.325分钟 108.325分钟
每日圈数 13.293326 13.293325
详细信息
使用方式:
暂无
2D轨道图
3D轨道图
轨道高度分析图
轨道倾角分析图
轨道综合分析图
查看轨道综合分析图